Regional Weather Roundup
Issued by NWS Midland/Odessa, TX

Skip options and go directly to product.
Home | Oldest Version | Previous Version | Current Version | All | Graphics & Text | Save Text | Print | Product List | Glossary On

Skip product version selection by date and time.   
164
ASUS44 KMAF 021210
RWRMAF
MIDLAND AREA WEATHER ROUNDUP
NATIONAL WEATHER SERVICE MIDLAND TX
700 AM CDT THU JUL 02 2015

...IN SOUTHWEST TEXAS AND SOUTHEAST NEW MEXICO...

CITY           SKY/WX    TMP DP  RH WIND       PRES   REMARKS
ALPINE         NOT AVBL
ANDREWS        NOT AVBL
ARTESIA        MOCLDY    70  64  83 CALM      30.04R
BIG SPRING     NOT AVBL
CARLSBAD       PTCLDY    68  62  81 S3        30.00R
DRYDEN           N/A     68  64  87 VRB3      29.98R
FORT STOCKTON  CLEAR     69  64  84 SE9       29.98R
GUAD PASS      CLEAR     71  57  61 CALM      30.14R
HOBBS          CLOUDY    66  66 100 SE6       30.05F
MARFA          PTCLDY   N/A N/A N/A CALM      30.12R
MIDLAND AIRPK  NOT AVBL
MIDLAND INTL   CLOUDY    72  65  78 S15       30.00S
ODESSA         CLOUDY    71  64  78 MISG      30.01S
PECOS          NOT AVBL
PRESIDIO       NOT AVBL
SEMINOLE       NOT AVBL
SNYDER         NOT AVBL
WINK           CLEAR     70  65  84 SE10      29.97R
$$
...OTHER STATIONS IN TEXAS...

CITY           SKY/WX    TMP DP  RH WIND       PRES   REMARKS
ABILENE        CLEAR     70  65  84 S7        30.00R
AMARILLO       TSTM      70  64  81 E10       30.04R
AUSTIN         MOCLDY    69  69 100 S6        30.03R
BROWNSVILLE    PTCLDY    76  74  93 E8        29.97R FOG
CORPUS CHRISTI MOCLDY    74  71  91 SE6       29.99R
DALLAS FTW     MOCLDY    75  68  78 S9        29.97R
DEL RIO        CLEAR     70  64  81 E10       29.97R
EL PASO        PTCLDY    74  53  48 CALM      29.99R
HOUSTON INT    PTCLDY    72  70  93 CALM      30.03S
LUBBOCK        CLOUDY    69  64  84 W7        30.04S
SAN ANGELO     CLEAR     69  65  86 S5        30.00R
SAN ANTONIO    PTCLDY    70  67  90 E5        30.03R
WACO           PTCLDY    71  69  93 S15       30.00S
WICHITA FALLS  NOT AVBL
$$
...OTHER LOCATIONS IN NEW MEXICO...

CITY           SKY/WX    TMP DP  RH WIND       PRES   REMARKS
ALAMAGORDO     PTCLDY    64  46  52 E3        30.02S
ALBUQUERQUE    CLOUDY    73  54  51 NW7       30.14R
CANNON AFB     CLEAR     69  60  73 NW6       30.06F
CLOVIS         MOCLDY    70  59  68 NW6         N/A
HOLLOMAN AFB   PTCLDY    67  46  46 N9        30.00S
ROSWELL        PTCLDY    68  60  75 E6        30.04R
RUIDOSO        MOCLDY    61  48  63 W9        30.26S
SANTA FE       MOCLDY    62  56  80 N12       30.23R
TRUTH OR CONSE PTCLDY    75  54  47 NW6       30.06S
TUCUMCARI      CLOUDY    71  62  73 CALM      30.04F
$$

USA.gov is the U.S. government's official web portal to all federal, state and local government web resources and services.